Location: MAS Eagle Lake Observatory
(44.8103°N, 93.9397°W)
Time: 06:31:32
(UTC-06:00)

ISS - Visible Passes

Search period start: 23 February 2018 00:00
Search period end: 05 March 2018 00:00
Orbit: 402 x 407 km, 51.6° (Epoch: 23 February)

Date Brightness Start Highest point End Pass type
(mag) Time Alt. Az. Time Alt. Az. Time Alt. Az.
25 Feb -1.2 06:24:42 10° S 06:27:14 21° SE 06:29:47 10° E visible
26 Feb -0.7 05:33:56 10° SSE 05:35:11 12° SE 05:36:27 10° ESE visible
27 Feb -2.8 06:15:48 10° SW 06:18:56 45° SE 06:22:06 10° ENE visible
28 Feb -1.8 05:24:26 12° SSW 05:26:46 25° SE 05:29:32 10° E visible
01 Mar -1.1 04:34:40 14° SE 04:34:40 14° SE 04:36:33 10° E visible
01 Mar -3.9 06:07:28 10° WSW 06:10:44 84° NNW 06:14:01 10° ENE visible
02 Mar -3.4 05:17:25 36° SSW 05:18:26 56° SE 05:21:40 10° ENE visible
03 Mar -1.5 04:27:22 24° E 04:27:22 24° E 04:29:10 10° ENE visible
03 Mar -3.3 06:00:02 14° W 06:02:36 45° NNW 06:05:47 10° NE visible
04 Mar -3.9 05:09:52 64° WNW 05:10:12 71° NNW 05:13:29 10° ENE visible
